RH
92 79 86 96 92 87 70 45 24 16 22 30 33 39 14 4 2 5 2 3 4 3 3 3 3 3 3 2 2 2 4 8 8 8 10 7 7 7 8 7 7 7 8 10 12
91 87 90 97 93 90 81 59 23 18 29 29 28 36 32 17 6 1 2 3 3 3 3 3 3 2 2 2 1 1 2 6 7 7 8 8 7 6 6 9 6 6 9 10 11
88 90 91 92 84 86 88 72 28 22 34 24 29 24 28 20 4 2 2 2 3 4 3 3 3 2 2 1 1 1 1 2 4 7 7 7 8 7 6 6 4 6 7 10 10
80 83 89 93 74 75 73 55 21 28 30 21 26 21 14 21 10 7 2 2 3 3 3 3 2 2 2 1 1 2 2 2 2 2 6 8 8 8 6 6 6 6 4 7 8
66 67 73 85 55 70 40 24 16 24 20 14 19 18 16 19 13 6 4 2 2 2 3 2 2 2 2 2 2 1 2 2 2 2 2 7 7 7 6 6 6 6 6 6 6
76 73 90 90 75 74 68 20 14 11 9 8 8 8 17 11 10 9 4 2 2 3 2 2 3 2 2 2 2 1 1 1 2 2 2 4 4 3 5 6 6 6 7 6 7
85 98 99 92 96 86 86 73 32 18 8 6 6 11 10 13 11 8 6 4 2 2 2 3 3 3 3 2 2 2 2 1 2 2 2 2 3 2 1 2 5 5 6 6 7
90 85 95 88 88 95 36 42 53 50 18 10 11 10 11 9 9 7 5 4 3 2 2 2 2 2 2 3 2 2 2 2 2 2 2 2 4 2 2 2 2 3 4 6 7
98 85 86 79 78 72 86 11 8 9 11 7 10 9 9 10 10 8 6 5 4 3 2 2 2 2 2 2 2 2 2 2 2 2 2 2 2 2 2 2 2 3 4 5 6
80 91 92 75 59 53 60 21 7 7 7 8 9 9 11 12 12 9 7 5 4 3 3 2 2 1 1 1 1 1 1 1 1 2 2 2 2 2 2 3 3 4 8 10 11
74 91 87 70 52 59 20 30 20 13 10 11 11 13 14 12 10 8 7 6 4 3 3 3 2 2 2 2 2 2 2 2 2 2 3 3 3 3 4 6 7 10 12 14 14
76 89 86 59 59 40 53 21 16 17 14 15 24 52 36 21 12 9 7 6 6 4 3 3 3 3 3 2 3 3 3 4 6 6 7 11 10 11 13 14 16 17 18 17 17
80 73 69 58 52 59 36 55 43 35 29 41 52 71 81 36 10 7 6 6 5 5 5 5 4 5 5 6 8 9 10 13 14 16 17 16 17 16 17 16 17 17 17 17 17
75 76 53 44 38 55 46 56 56 56 71 80 72 29 20 18 14 12 9 13 7 7 8 9 10 12 14 16 16 18 18 18 17 16 17 15 15 14 13 12 14 15 16 20 23
77 72 70 37 32 58 38 23 36 50 56 62 32 26 26 25 19 15 14 12 13 17 18 21 17 16 17 17 17 18 18 16 15 14 14 15 17 19 19 22 28 29 35 43 48
76 71 72 57 49 43 32 32 46 55 54 48 32 30 29 23 21 19 18 17 21 21 20 17 18 18 18 17 15 14 14 14 15 19 23 27 34 45 41 46 45 45 44 43 42
75 78 68 67 53 52 58 65 69 69 65 42 31 34 24 23 22 20 19 20 21 21 19 18 17 15 14 14 15 18 24 30 34 36 39 41 45 50 48 44 40 35 29 27 24
81 68 69 73 70 70 72 65 70 68 32 31 36 38 28 20 22 22 22 21 21 20 18 17 15 15 16 22 33 38 40 40 42 42 43 50 52 49 43 35 23 15 12 10 11
78 68 61 74 73 66 64 70 72 43 27 37 38 53 33 24 26 24 21 21 20 17 15 12 13 19 30 36 38 41 42 44 37 38 30 35 39 41 22 10 9 10 12 11 9
63 63 60 59 62 60 61 58 56 25 29 47 56 52 26 26 25 23 21 21 17 14 13 14 20 31 36 40 42 43 33 30 19 16 14 16 11 11 9 12 14 13 8 7 8
63 57 68 70 74 36 30 34 33 29 29 32 42 60 34 25 25 22 20 18 14 12 13 24 32 39 42 40 35 23 9 7 7 8 6 6 15 14 16 9 10 11 11 13 13
51 52 63 70 68 60 40 37 37 42 48 48 48 55 40 24 22 20 17 13 13 18 29 37 40 39 36 33 20 5 7 11 14 16 16 16 16 14 9 10 11 10 12 13 11
69 59 60 65 53 61 48 34 34 37 39 41 34 34 25 22 20 20 16 15 21 32 40 44 36 35 31 20 12 21 26 24 22 12 16 11 12 12 10 12 13 16 15 15 16
82 78 63 50 43 48 48 34 34 41 40 41 56 52 24 22 20 17 14 22 32 46 42 37 37 25 7 16 28 27 27 22 9 8 8 15 8 10 8 10 10 12 20 20 20
84 75 63 48 41 43 45 40 43 56 58 69 71 37 24 21 18 16 20 31 52 43 41 41 18 8 23 31 26 10 19 13 11 10 9 11 9 10 12 11 13 15 15 16 21
98 97 77 78 50 47 65 62 64 71 77 75 29 25 20 17 21 23 47 56 48 43 45 21 8 24 34 28 12 6 10 10 12 13 13 12 10 10 11 13 16 15 16 20 20
100 100 92 95 74 57 86 83 70 77 84 37 25 22 21 27 34 50 60 54 46 45 20 10 36 38 32 16 7 7 8 11 14 13 12 10 10 11 14 13 12 16 20 20 20
Wind_Speed
19 20 17 19 20 21 20 20 19 16 14 15 11 11 8 8 13 15 16 14 12 9 10 8 7 6 7 10 10 12 11 12 12 12 13 13 11 14 13 17 16 18 13 14 15
26 28 23 20 21 24 23 22 21 20 17 18 14 13 12 11 12 16 16 16 15 13 12 10 10 7 9 12 11 11 13 11 10 11 11 13 13 13 10 16 20 14 15 16 18
27 27 26 19 20 23 25 26 23 22 19 19 18 19 16 14 14 16 19 19 18 16 14 14 14 9 10 12 11 14 11 11 12 10 11 12 14 14 12 15 15 15 12 16 20
27 30 26 23 19 22 24 25 25 23 20 20 19 19 17 15 14 15 17 20 21 19 17 17 16 12 12 12 12 14 11 12 14 12 13 13 12 13 17 13 16 16 14 16 19
27 28 28 23 23 25 22 23 24 23 21 21 21 21 19 15 14 14 17 21 23 22 20 19 20 16 14 15 14 14 16 14 14 15 15 13 17 12 19 16 16 17 17 16 17
26 27 26 26 27 25 24 20 21 22 22 21 22 21 19 14 14 14 15 19 24 23 23 21 22 20 17 17 17 17 18 17 18 17 16 13 18 17 18 15 17 16 18 18 18
22 23 27 32 28 24 23 23 23 22 22 19 21 20 16 14 14 14 16 18 21 22 24 24 23 23 20 19 21 20 19 18 19 19 17 17 18 22 20 19 16 18 19 21 19
21 22 15 14 17 21 20 24 25 25 21 21 22 17 17 15 13 14 15 15 18 21 23 24 25 24 22 21 23 22 22 20 20 19 20 18 18 22 24 22 22 20 20 20 22
20 19 14 18 19 15 23 18 20 20 22 21 19 16 18 13 13 14 14 14 18 19 21 23 25 24 25 22 25 24 24 23 23 24 22 24 20 29 28 26 26 28 27 24 23
18 19 15 17 15 11 18 14 17 18 18 17 16 16 13 15 13 14 13 14 15 18 20 19 21 23 23 21 22 25 25 25 27 24 22 25 22 26 29 26 26 26 24 23 22
19 18 18 17 14 15 12 19 17 16 17 16 17 13 12 11 12 13 13 15 15 15 17 17 18 16 19 19 20 21 22 21 24 24 22 23 25 25 25 23 22 20 21 20 21
18 18 17 14 15 14 21 16 17 18 18 17 13 13 8 14 14 13 13 13 15 15 13 13 15 15 16 18 18 18 18 19 19 20 17 15 19 19 18 18 19 20 20 20 21
18 15 16 16 17 18 16 25 23 21 19 16 24 20 17 17 14 13 11 10 15 12 9 9 10 12 12 13 12 14 14 15 13 14 18 15 18 19 21 19 19 22 21 21 22
19 18 15 16 18 20 22 22 26 23 26 34 16 15 14 13 12 12 11 12 11 10 6 8 8 9 10 11 12 14 16 17 18 17 17 15 17 22 24 22 19 21 22 20 23
19 19 19 19 20 24 24 25 25 23 19 18 16 14 13 13 12 11 9 9 9 8 7 6 11 11 12 13 15 15 16 18 19 18 18 17 13 19 24 26 25 23 23 25 30
22 22 22 22 22 23 24 26 25 24 21 14 18 15 14 14 12 11 12 11 9 9 9 10 12 11 12 14 16 18 18 21 21 20 18 17 14 16 26 30 33 35 33 31 33
24 24 26 25 28 25 26 28 25 22 23 21 19 17 15 14 14 14 13 12 10 12 12 11 12 14 15 17 17 18 20 23 25 23 25 24 22 24 30 30 31 33 36 34 31
28 26 27 30 31 29 31 31 28 26 23 20 19 19 18 20 17 15 14 14 13 15 15 13 12 14 15 16 18 20 23 27 29 30 31 27 27 28 29 32 34 28 27 24 25
32 28 28 32 34 32 32 30 26 27 22 22 22 22 22 20 17 18 18 16 16 17 17 16 13 13 15 20 24 25 28 31 33 33 34 31 28 29 31 27 24 23 20 21 22
34 30 29 30 31 32 33 28 28 23 24 26 26 24 22 22 20 20 19 17 18 18 18 16 15 16 19 23 28 30 33 32 32 31 29 27 21 17 20 21 23 20 22 26 28
38 35 35 33 32 31 26 23 26 25 26 26 25 24 26 24 22 22 20 19 18 20 19 19 19 20 22 25 27 31 30 25 20 20 18 16 11 15 16 19 23 21 26 30 33
40 39 39 39 36 33 26 25 28 25 29 26 26 26 28 27 23 22 23 20 19 20 19 22 25 23 24 26 26 23 18 14 14 13 13 13 12 12 17 20 22 25 28 34 40
44 42 41 40 38 34 30 29 29 29 29 27 24 27 28 26 25 24 24 22 21 22 24 26 28 28 26 26 19 18 19 19 15 8 10 12 9 17 17 23 25 27 34 40 44
48 45 43 41 37 33 33 32 32 30 29 29 31 29 29 27 26 26 24 24 23 26 28 29 27 31 20 16 20 20 17 17 14 10 9 12 9 18 21 26 29 34 38 42 44
54 48 42 40 35 34 35 34 32 29 32 28 28 30 33 28 27 25 27 25 25 29 29 32 26 21 17 19 18 13 15 18 19 19 15 14 22 24 28 30 33 37 44 47 47
52 51 44 43 35 36 38 34 34 33 36 32 31 32 32 26 28 26 27 29 30 29 30 32 19 22 20 19 16 16 20 18 19 21 23 24 23 29 34 37 39 44 48 48 50
48 48 50 50 40 39 40 40 40 36 34 32 31 34 29 27 28 29 31 33 33 30 28 22 25 25 18 20 20 19 22 22 22 25 26 29 32 35 37 41 45 49 50 52 54
Wind_Direction
231 245 254 242 227 233 233 235 230 227 222 215 231 237 244 235 230 220 222 226 225 238 247 256 263 281 298 308 318 317 319 333 332 332 316 315 309 297 292 288 284 275 283 281 278
241 241 248 241 237 235 233 241 229 225 222 226 236 234 232 241 239 228 230 230 231 239 249 255 262 273 295 303 316 316 309 314 327 339 325 317 317 311 306 284 285 290 278 274 269
237 240 236 247 244 242 240 237 234 224 226 230 238 240 243 238 238 228 228 230 236 239 247 259 262 261 282 293 307 312 325 311 313 325 330 324 314 314 305 291 307 294 283 278 277
240 244 250 239 241 237 234 232 230 228 227 232 239 238 240 234 239 241 240 238 239 241 247 257 262 263 273 283 298 306 318 316 321 324 317 326 316 310 301 309 305 305 287 272 272
245 254 253 232 236 235 230 231 230 231 231 232 237 242 242 239 244 249 244 243 243 247 248 255 264 265 271 278 285 292 303 314 319 324 324 316 311 316 307 312 304 304 301 290 280
240 239 238 226 231 233 229 236 237 236 233 234 236 238 244 242 251 258 252 253 250 249 253 255 261 265 268 277 280 284 294 309 313 316 319 315 305 311 312 314 312 308 298 295 295
231 233 242 243 228 232 240 239 238 240 238 235 237 241 246 246 246 255 259 258 255 253 255 257 261 262 267 273 280 284 290 295 302 309 314 317 302 307 309 317 311 297 297 297 293
238 242 230 230 245 248 230 243 241 241 239 238 238 242 246 240 249 259 261 267 265 262 257 258 263 266 268 274 279 284 286 292 292 299 307 305 293 302 305 311 302 301 298 297 295
242 241 253 248 249 255 228 235 235 230 233 231 234 239 245 251 258 269 272 271 275 270 270 266 267 271 274 278 281 285 286 290 289 287 291 295 297 297 303 304 304 304 305 302 297
248 251 252 253 239 243 218 224 230 219 226 235 239 237 247 256 260 269 267 272 276 275 272 271 270 272 275 278 281 288 288 288 288 291 291 288 291 291 297 299 297 300 302 301 299
240 244 243 238 242 219 210 217 223 225 226 228 235 236 243 261 275 277 278 272 271 271 270 274 276 277 280 284 283 283 287 290 293 297 298 297 294 292 297 302 305 307 307 308 305
229 235 232 232 234 232 215 211 210 215 221 213 222 242 262 271 273 271 272 279 283 274 268 269 272 276 282 287 292 295 298 298 299 301 305 308 301 304 305 307 312 309 308 307 305
227 225 223 224 220 222 221 220 219 221 218 228 240 243 255 255 259 261 267 275 270 275 281 279 283 283 285 290 299 300 305 305 306 308 313 317 304 303 299 305 303 307 307 311 311
230 227 225 220 221 217 224 226 229 234 235 241 254 245 248 254 250 253 255 259 264 273 284 283 287 291 300 303 306 305 307 305 307 314 310 318 312 310 305 309 308 304 307 314 310
234 230 222 223 219 221 229 226 228 240 259 243 240 245 248 249 248 248 252 251 260 270 273 277 287 289 296 305 304 301 306 308 313 314 310 319 317 306 303 307 307 303 310 310 305
237 233 223 226 225 224 230 234 241 251 248 243 235 239 239 243 242 248 256 255 258 268 274 278 281 291 299 301 302 303 307 308 305 310 313 311 312 309 307 310 310 313 308 304 301
241 233 230 227 225 228 238 238 239 253 249 238 237 240 243 245 252 257 255 256 262 269 273 278 288 298 298 299 301 305 309 302 304 309 308 310 309 311 304 307 306 305 306 308 308
236 233 235 228 230 233 235 236 242 254 243 240 239 242 250 249 252 249 250 262 268 270 274 280 278 284 287 293 297 299 301 303 309 310 308 310 307 305 306 301 302 306 311 327 333
232 232 230 227 232 237 238 240 243 240 233 241 243 246 249 250 247 254 259 261 268 273 278 281 278 279 285 293 299 301 303 304 304 304 304 305 309 309 306 314 319 332 332 329 330
226 224 225 226 230 234 235 233 235 233 230 235 241 240 253 254 256 258 261 266 271 274 276 280 280 284 289 295 297 301 302 302 304 304 308 317 334 307 316 329 333 335 328 331 329
224 222 224 226 229 231 230 223 228 224 229 234 242 239 262 255 257 262 262 266 270 271 277 279 282 286 290 292 296 299 300 306 302 306 322 330 345 325 336 334 332 326 329 329 327
221 221 225 230 232 230 227 224 227 223 236 234 242 244 257 261 259 261 267 266 271 273 276 282 287 289 290 293 296 293 306 305 307 315 320 321 324 332 327 336 332 320 318 318 320
219 221 225 228 230 228 227 228 228 228 239 237 238 251 256 259 260 263 265 268 269 272 280 284 289 291 292 290 287 295 300 296 305 317 295 323 315 322 325 336 332 323 315 315 317
220 222 222 226 227 224 224 228 232 232 238 238 234 252 259 257 258 261 263 264 269 279 282 284 288 290 288 276 284 291 292 288 294 296 290 325 312 306 315 319 316 316 312 312 313
224 220 221 225 227 224 228 229 232 239 236 237 243 255 253 252 256 260 263 264 273 275 280 284 287 270 278 280 275 278 280 287 289 296 286 293 311 308 315 313 312 312 310 313 313
229 226 220 223 227 227 232 230 233 241 233 237 251 248 248 248 254 259 265 269 271 278 280 283 266 271 277 265 267 272 279 283 288 287 294 298 302 307 311 313 314 316 313 313 312
224 222 221 221 224 228 229 225 232 236 233 247 247 246 245 248 255 261 267 272 275 273 272 260 269 272 264 263 271 272 270 281 281 286 292 300 303 306 310 311 314 312 310 309 308